{"data":{"norad_id":60511,"intl_designator":"2024-149AV","name":"FLOCK 4BE-2","alt_names":[],"object_type":"PAYLOAD","status":"ACTIVE","operator":null,"country":"US","launch_date":"2024-08-16","launch_site_code":"AFWTR","launch_vehicle":null,"mission":null,"orbit_class":"UNKNOWN","rcs_meters":null,"size_class":null,"mass_kg":null,"dimensions":null,"purposes":["earth_obs"],"wikipedia_slug":null,"has_3d_model":false,"image_url":null,"decayed_at":null,"tle_current":{"epoch":"2026-08-03T19:03:18.197568Z","epoch_age_seconds":4136343,"freshness":"OLD","line1":"1 60511U 24149AV  26215.79396062  .00077325  00000+0  10040-2 0  9991","line2":"2 60511  97.3805 304.6388 0003937 122.8038 237.3598 15.58559564109904","mean_motion":15.58559564,"eccentricity":0.0003937,"inclination_deg":97.3805,"raan_deg":304.6388,"arg_perigee_deg":122.8038,"mean_anomaly_deg":237.3598,"bstar":0.001004,"rev_number":10990,"period_min":92.39300398018,"perigee_km":389.15978021692,"apogee_km":394.49044838572,"semimajor_km":6769.9621143013,"source":"CELESTRAK","updated_at":"2026-08-05T09:02:32.021990Z"}}}